Карточка аэропорта UERP

Внимание!
Информация на этой странице в стадии наполнения.
Если вы не увидели какой-то информации, или заметили неточность - пожалуйста сообщите нам!
Спасибо!
Команда RU-STAFF
Название аэропортаПолярный
Название аэропорта (англ.)Poliarny
Превышение1673 ft. (509.9 m.)
Координаты66°23.85', 112°2.0999999999998'
Высота перехода700m
Эшелон переходаQFE>=714mm:FL050; QFE<714=>687:FL060; QFE<687:FL070
Коды ответчика1000
Зона ОрВДЯкутск РПИ (UEEE)
Данные METARUERP 250200Z 10006G11MPS 4500 -SHRA BR BKN007 BKN011CB OVC100 09/09 Q1012 R36/290158 NOSIG RMK QFE715
Проноз погоды (TAF)UERP 250018Z 2500/2524 09005G10MPS 4000 -SHRA BKN012CB OVC100 TEMPO 2500/2510 VRB08MPS 1500 TSRA HZ BKN005 OVC012CB TEMPO 2512/2524 1500 -SHRA BR BKN007 BKN012CB OVC100
NOTAMshow/hide NOTAM
AWOS   TABLE

Информация о ВПП

ВПП Длина ВПП (м.) Покрытие Курс ВПП Частота ILS
173100Железобетон173 
353100Железобетон353108.1

Диспетчерские позиции

Позывной Наименование органа УВД Частота
UERP_CTRПолярный-Контроль132.1
UERP_TWRПолярный-Вышка124.200



Спутниковое изображение